Location: Platte
(43.3870°N, 98.8440°W)
Time: 02:10:02
(UTC-05:00)

Landsat 7 - Visible Passes

Search period start: 30 April 2016 00:00
Search period end: 10 May 2016 00:00
Orbit: 702 x 703 km, 98.2° (Epoch: 29 April)

Date Brightness Start Highest point End Pass type
(mag) Time Alt. Az. Time Alt. Az. Time Alt. Az.
30 Apr 5.6 00:22:19 22° W 00:22:19 22° W 00:25:56 10° NW visible
30 Apr 5.8 21:47:44 11° E 21:49:54 14° ENE 21:52:17 10° NNE visible
30 Apr 3.7 23:26:37 70° SSW 23:27:01 76° WSW 23:31:48 10° NNW visible
01 May 4.8 22:30:55 28° E 22:32:13 32° ENE 22:36:26 10° N visible
02 May 5.2 00:09:48 28° W 00:09:56 28° W 00:14:04 10° NW visible
02 May 6.0 21:36:49 10° ENE 21:37:52 11° ENE 21:38:55 10° NE visible
02 May 3.7 23:14:07 65° SSE 23:14:48 83° ENE 23:19:35 10° NNW visible
03 May 6.4 00:53:00 11° W 00:53:09 11° W 00:54:18 10° WNW visible
03 May 5.1 22:18:25 21° E 22:20:06 25° ENE 22:23:59 10° N visible
03 May 4.8 23:57:18 37° WSW 23:57:40 37° W 00:02:05 10° NNW visible
04 May 3.9 23:01:37 50° SE 23:02:37 63° ENE 23:07:20 10° N visible
05 May 6.1 00:40:29 15° W 00:40:47 15° W 00:43:24 10° WNW visible
05 May 5.4 22:05:55 15° E 22:08:01 20° ENE 22:11:26 10° NNE visible
05 May 4.3 23:44:48 46° SW 23:45:24 49° W 23:50:02 10° NNW visible
06 May 4.2 22:49:07 37° ESE 22:50:27 48° ENE 22:55:02 10° N visible
07 May 5.8 00:27:59 19° W 00:28:26 19° W 00:31:50 10° NW visible
07 May 5.7 21:53:26 11° E 21:55:57 16° ENE 21:58:44 10° NNE visible
07 May 4.0 23:32:18 54° SSW 23:33:09 66° WSW 23:37:54 10° NNW visible
08 May 4.6 22:36:37 28° ESE 22:38:18 37° ENE 22:42:40 10° N visible
09 May 5.4 00:15:30 24° WSW 00:16:07 25° W 00:20:03 10° NW visible
09 May 5.9 21:42:03 10° E 21:43:54 12° ENE 21:45:45 10° NE visible
09 May 3.7 23:19:48 53° S 23:20:55 86° WSW 23:25:43 10° NNW visible
